Time,TemperatureF,DewpointF,PressureIn,WindDirection,WindDirectionDegrees,WindSpeedMPH,WindSpeedGustMPH,Humidity,HourlyPrecipIn,Conditions,Clouds,dailyrainin,SoftwareType,DateUTC
2013-04-16 00:00:00,57.6,47.8,29.88,SSW,202,0.0,-999.0,70,-99.99,,,-99.99,meteohub,2013-04-16 04:00:00,
2013-04-16 00:01:00,57.6,47.5,29.88,SSW,202,4.0,-999.0,69,-99.99,,,-99.99,meteohub,2013-04-16 04:01:00,
2013-04-16 00:02:00,57.6,47.5,29.88,SW,225,0.0,-999.0,69,-99.99,,,-99.99,meteohub,2013-04-16 04:02:00,
2013-04-16 00:08:00,57.9,48.6,29.88,SSW,202,0.0,-999.0,71,-99.99,,,-99.99,meteohub,2013-04-16 04:08:00,
2013-04-16 00:13:00,58.1,48.7,29.88,South,180,0.0,-999.0,71,-99.99,,,-99.99,meteohub,2013-04-16 04:13:00,
2013-04-16 00:18:00,58.3,48.6,29.88,SSW,202,0.0,-999.0,70,-99.99,,,-99.99,meteohub,2013-04-16 04:18:00,
2013-04-16 00:38:00,59.4,40.3,29.91,South,180,0.0,-999.0,49,-99.99,,,-99.99,meteohub,2013-04-16 04:38:00,
2013-04-16 00:43:00,59.7,39.6,29.91,East,90,3.0,-999.0,47,-99.99,,,-99.99,meteohub,2013-04-16 04:43:00,
2013-04-16 00:48:00,59.9,38.5,29.91,SSE,158,4.0,-999.0,45,-99.99,,,-99.99,meteohub,2013-04-16 04:48:00,
2013-04-16 00:53:00,60.4,36.7,29.91,SSW,202,6.0,-999.0,41,-99.99,,,-99.99,meteohub,2013-04-16 04:53:00,
2013-04-16 00:58:00,60.8,36.3,29.91,SW,225,0.0,-999.0,40,-99.99,,,-99.99,meteohub,2013-04-16 04:58:00,
2013-04-16 01:04:00,60.8,35.8,29.91,West,270,2.0,-999.0,39,-99.99,,,-99.99,meteohub,2013-04-16 05:04:00,
2013-04-16 01:09:00,61.3,34.9,29.91,SSE,158,3.0,-999.0,37,-99.99,,,-99.99,meteohub,2013-04-16 05:09:00,
2013-04-16 01:14:00,61.5,35.1,29.91,ESE,112,3.0,-999.0,37,-99.99,,,-99.99,meteohub,2013-04-16 05:14:00,
2013-04-16 01:19:00,61.5,34.3,29.91,SSW,202,3.0,-999.0,36,-99.99,,,-99.99,meteohub,2013-04-16 05:19:00,
2013-04-16 01:24:00,61.7,34.5,29.91,WSW,248,4.0,-999.0,36,-99.99,,,-99.99,meteohub,2013-04-16 05:24:00,
2013-04-16 01:30:00,61.7,34.5,29.91,South,180,4.0,-999.0,36,-99.99,,,-99.99,meteohub,2013-04-16 05:30:00,
2013-04-16 01:35:00,61.7,34.5,29.91,WSW,248,0.0,-999.0,36,-99.99,,,-99.99,meteohub,2013-04-16 05:35:00,
2013-04-16 01:40:00,61.9,34.7,29.91,ESE,112,3.0,-999.0,36,-99.99,,,-99.99,meteohub,2013-04-16 05:40:00,
2013-04-16 01:45:00,61.9,34.7,29.91,SSE,158,3.0,-999.0,36,-99.99,,,-99.99,meteohub,2013-04-16 05:45:00,
2013-04-16 01:50:00,61.7,34.5,29.91,WSW,248,0.0,-999.0,36,-99.99,,,-99.99,meteohub,2013-04-16 05:50:00,
2013-04-16 01:55:00,61.7,34.5,29.91,South,180,0.0,-999.0,36,-99.99,,,-99.99,meteohub,2013-04-16 05:55:00,
2013-04-16 02:00:00,61.5,34.3,29.91,WSW,248,5.0,-999.0,36,-99.99,,,-99.99,meteohub,2013-04-16 06:00:00,
2013-04-16 02:05:00,61.5,34.3,29.91,WSW,248,2.0,-999.0,36,-99.99,,,-99.99,meteohub,2013-04-16 06:05:00,
2013-04-16 02:11:00,61.3,34.2,29.91,SSE,158,2.0,-999.0,36,-99.99,,,-99.99,meteohub,2013-04-16 06:11:00,
2013-04-16 02:16:00,61.3,34.2,29.91,SSW,202,1.0,-999.0,36,-99.99,,,-99.99,meteohub,2013-04-16 06:16:00,
2013-04-16 02:21:00,61.5,34.3,29.91,West,270,3.0,-999.0,36,-99.99,,,-99.99,meteohub,2013-04-16 06:21:00,
2013-04-16 02:26:00,61.5,34.3,29.91,SSW,202,0.0,-999.0,36,-99.99,,,-99.99,meteohub,2013-04-16 06:26:00,
2013-04-16 02:31:00,61.5,34.3,29.91,SW,225,5.0,-999.0,36,-99.99,,,-99.99,meteohub,2013-04-16 06:31:00,
2013-04-16 02:37:00,61.3,34.2,29.91,West,270,6.0,-999.0,36,-99.99,,,-99.99,meteohub,2013-04-16 06:37:00,
2013-04-16 02:42:00,61.3,33.4,29.91,WNW,292,4.0,-999.0,35,-99.99,,,-99.99,meteohub,2013-04-16 06:42:00,
2013-04-16 02:47:00,61.2,34.0,29.91,WSW,248,8.0,-999.0,36,-99.99,,,-99.99,meteohub,2013-04-16 06:47:00,
2013-04-16 02:52:00,61.0,33.8,29.91,West,270,3.0,-999.0,36,-99.99,,,-99.99,meteohub,2013-04-16 06:52:00,
2013-04-16 02:57:00,59.5,33.3,29.91,NNW,338,18.0,-999.0,37,-99.99,,,-99.99,meteohub,2013-04-16 06:57:00,
2013-04-16 03:02:00,57.2,32.5,29.91,NNW,338,14.0,-999.0,39,-99.99,,,-99.99,meteohub,2013-04-16 07:02:00,
2013-04-16 03:07:00,55.6,32.9,29.91,NNW,338,11.0,-999.0,42,-99.99,,,-99.99,meteohub,2013-04-16 07:07:00,
2013-04-16 03:12:00,54.5,34.2,29.91,NNW,338,12.0,-999.0,46,-99.99,,,-99.99,meteohub,2013-04-16 07:12:00,
2013-04-16 03:17:00,53.4,34.7,29.91,NNW,338,12.0,-999.0,49,-99.99,,,-99.99,meteohub,2013-04-16 07:17:00,
2013-04-16 03:22:00,52.9,34.7,29.94,NW,315,12.0,-999.0,50,-99.99,,,-99.99,meteohub,2013-04-16 07:22:00,
2013-04-16 03:27:00,52.2,34.7,29.94,NNW,338,10.0,-999.0,51,-99.99,,,-99.99,meteohub,2013-04-16 07:27:00,
2013-04-16 03:32:00,51.8,35.2,29.94,NNW,338,8.0,-999.0,53,-99.99,,,-99.99,meteohub,2013-04-16 07:32:00,
2013-04-16 03:37:00,51.4,36.3,29.94,NNE,22,6.0,-999.0,56,-99.99,,,-99.99,meteohub,2013-04-16 07:37:00,
2013-04-16 03:42:00,51.3,36.5,29.94,NNW,338,6.0,-999.0,57,-99.99,,,-99.99,meteohub,2013-04-16 07:42:00,
2013-04-16 03:47:00,51.1,37.2,29.94,NW,315,7.0,-999.0,59,-99.99,,,-99.99,meteohub,2013-04-16 07:47:00,
2013-04-16 03:53:00,50.9,37.6,29.97,NW,315,9.0,-999.0,60,-99.99,,,-99.99,meteohub,2013-04-16 07:53:00,
2013-04-16 03:58:00,50.5,37.2,29.97,NW,315,9.0,-999.0,60,-99.99,,,-99.99,meteohub,2013-04-16 07:58:00,
2013-04-16 04:03:00,50.4,37.4,29.97,NNW,338,8.0,-999.0,61,-99.99,,,-99.99,meteohub,2013-04-16 08:03:00,
2013-04-16 04:08:00,50.2,38.1,29.97,NNW,338,6.0,-999.0,63,-99.99,,,-99.99,meteohub,2013-04-16 08:08:00,
2013-04-16 04:13:00,50.2,38.8,29.97,NNW,338,3.0,-999.0,65,-99.99,,,-99.99,meteohub,2013-04-16 08:13:00,
2013-04-16 04:19:00,50.0,39.2,29.97,NNW,338,4.0,-999.0,66,-99.99,,,-99.99,meteohub,2013-04-16 08:19:00,
2013-04-16 04:24:00,49.8,40.1,29.94,NNW,338,5.0,-999.0,69,-99.99,,,-99.99,meteohub,2013-04-16 08:24:00,
2013-04-16 04:29:00,49.8,40.5,29.94,NNW,338,4.0,-999.0,70,-99.99,,,-99.99,meteohub,2013-04-16 08:29:00,
2013-04-16 04:34:00,49.6,40.3,29.94,NNW,338,6.0,-999.0,70,-99.99,,,-99.99,meteohub,2013-04-16 08:34:00,
2013-04-16 04:40:00,49.6,40.6,29.97,NNW,338,5.0,-999.0,71,-99.99,,,-99.99,meteohub,2013-04-16 08:40:00,
2013-04-16 04:45:00,49.6,40.3,29.97,NNW,338,1.0,-999.0,70,-99.99,,,-99.99,meteohub,2013-04-16 08:45:00,
2013-04-16 04:58:00,49.5,40.1,29.97,NE,45,0.0,-999.0,70,-99.99,,,-99.99,meteohub,2013-04-16 08:58:00,
2013-04-16 05:04:00,49.5,40.1,29.97,North,0,4.0,-999.0,70,-99.99,,,-99.99,meteohub,2013-04-16 09:04:00,
2013-04-16 05:09:00,49.5,40.5,29.94,NW,315,4.0,-999.0,71,-99.99,,,-99.99,meteohub,2013-04-16 09:09:00,
2013-04-16 05:14:00,49.5,40.5,29.94,North,0,3.0,-999.0,71,-99.99,,,-99.99,meteohub,2013-04-16 09:14:00,
2013-04-16 05:19:00,49.3,39.9,29.94,NNE,22,2.0,-999.0,70,-99.99,,,-99.99,meteohub,2013-04-16 09:19:00,
2013-04-16 05:24:00,49.3,39.9,29.94,WNW,292,5.0,-999.0,70,-99.99,,,-99.99,meteohub,2013-04-16 09:24:00,
2013-04-16 05:30:00,49.3,40.3,29.94,NW,315,4.0,-999.0,71,-99.99,,,-99.99,meteohub,2013-04-16 09:30:00,
2013-04-16 05:35:00,49.3,40.3,29.94,WNW,292,2.0,-999.0,71,-99.99,,,-99.99,meteohub,2013-04-16 09:35:00,
2013-04-16 05:40:00,49.3,39.9,29.94,WNW,292,2.0,-999.0,70,-99.99,,,-99.99,meteohub,2013-04-16 09:40:00,
2013-04-16 05:45:00,49.3,40.6,29.94,WNW,292,3.0,-999.0,72,-99.99,,,-99.99,meteohub,2013-04-16 09:45:00,
2013-04-16 05:51:00,49.3,41.0,29.97,NW,315,3.0,-999.0,73,-99.99,,,-99.99,meteohub,2013-04-16 09:51:00,
2013-04-16 05:56:00,49.1,40.5,29.97,NNW,338,6.0,-999.0,72,-99.99,,,-99.99,meteohub,2013-04-16 09:56:00,
2013-04-16 06:01:00,49.1,40.5,29.97,NNW,338,5.0,-999.0,72,-99.99,,,-99.99,meteohub,2013-04-16 10:01:00,
2013-04-16 06:06:00,49.1,40.1,29.97,WNW,292,3.0,-999.0,71,-99.99,,,-99.99,meteohub,2013-04-16 10:06:00,
2013-04-16 06:11:00,49.1,40.1,29.97,NNW,338,0.0,-999.0,71,-99.99,,,-99.99,meteohub,2013-04-16 10:11:00,
2013-04-16 06:16:00,49.1,40.1,29.97,SSE,158,4.0,-999.0,71,-99.99,,,-99.99,meteohub,2013-04-16 10:16:00,
2013-04-16 06:22:00,48.9,40.3,29.97,NNW,338,5.0,-999.0,72,-99.99,,,-99.99,meteohub,2013-04-16 10:22:00,
2013-04-16 06:27:00,48.9,40.3,29.97,NW,315,3.0,-999.0,72,-99.99,,,-99.99,meteohub,2013-04-16 10:27:00,
2013-04-16 06:32:00,48.9,40.3,29.97,NW,315,4.0,-999.0,72,-99.99,,,-99.99,meteohub,2013-04-16 10:32:00,
2013-04-16 06:37:00,48.9,40.6,29.97,WNW,292,4.0,-999.0,73,-99.99,,,-99.99,meteohub,2013-04-16 10:37:00,
2013-04-16 06:42:00,48.9,41.0,29.97,WNW,292,3.0,-999.0,74,-99.99,,,-99.99,meteohub,2013-04-16 10:42:00,
2013-04-16 06:47:00,48.9,41.4,29.97,WNW,292,3.0,-999.0,75,-99.99,,,-99.99,meteohub,2013-04-16 10:47:00,
2013-04-16 06:52:00,48.7,41.2,29.97,WNW,292,2.0,-999.0,75,-99.99,,,-99.99,meteohub,2013-04-16 10:52:00,
2013-04-16 06:57:00,48.7,41.2,29.97,WNW,292,1.0,-999.0,75,-99.99,,,-99.99,meteohub,2013-04-16 10:57:00,
2013-04-16 07:13:00,48.7,41.2,30.03,NW,315,3.0,-999.0,75,-99.99,,,-99.99,meteohub,2013-04-16 11:13:00,
2013-04-16 07:18:00,48.7,41.2,30.03,NW,315,3.0,-999.0,75,-99.99,,,-99.99,meteohub,2013-04-16 11:18:00,
2013-04-16 07:24:00,48.7,41.2,30.03,NNW,338,3.0,-999.0,75,-99.99,,,-99.99,meteohub,2013-04-16 11:24:00,
2013-04-16 07:29:00,48.7,40.8,30.03,NNW,338,6.0,-999.0,74,-99.99,,,-99.99,meteohub,2013-04-16 11:29:00,
2013-04-16 07:34:00,48.7,40.8,30.03,NNW,338,4.0,-999.0,74,-99.99,,,-99.99,meteohub,2013-04-16 11:34:00,
2013-04-16 07:40:00,48.7,40.8,30.00,NNW,338,4.0,-999.0,74,-99.99,,,-99.99,meteohub,2013-04-16 11:40:00,
2013-04-16 07:45:00,48.7,40.5,30.00,NW,315,4.0,-999.0,73,-99.99,,,-99.99,meteohub,2013-04-16 11:45:00,
2013-04-16 07:50:00,48.6,40.3,30.00,NNW,338,8.0,-999.0,73,-99.99,,,-99.99,meteohub,2013-04-16 11:50:00,
2013-04-16 07:55:00,48.6,40.3,30.03,NW,315,6.0,-999.0,73,-99.99,,,-99.99,meteohub,2013-04-16 11:55:00,
2013-04-16 08:00:00,48.6,40.3,30.03,NNW,338,6.0,-999.0,73,-99.99,,,-99.99,meteohub,2013-04-16 12:00:00,
2013-04-16 08:05:00,48.6,40.3,30.03,NNW,338,6.0,-999.0,73,-99.99,,,-99.99,meteohub,2013-04-16 12:05:00,
2013-04-16 08:11:00,48.6,40.3,30.03,NNW,338,8.0,-999.0,73,-99.99,,,-99.99,meteohub,2013-04-16 12:11:00,
2013-04-16 08:16:00,48.6,40.3,30.03,NW,315,5.0,-999.0,73,-99.99,,,-99.99,meteohub,2013-04-16 12:16:00,
2013-04-16 08:21:00,48.6,40.3,30.03,NNW,338,5.0,-999.0,73,-99.99,,,-99.99,meteohub,2013-04-16 12:21:00,
2013-04-16 08:26:00,48.6,40.6,30.03,North,0,6.0,-999.0,74,-99.99,,,-99.99,meteohub,2013-04-16 12:26:00,
2013-04-16 08:32:00,48.4,40.5,30.03,North,0,3.0,-999.0,74,-99.99,,,-99.99,meteohub,2013-04-16 12:32:00,
2013-04-16 08:37:00,48.4,40.5,30.03,NNW,338,6.0,-999.0,74,-99.99,,,-99.99,meteohub,2013-04-16 12:37:00,
2013-04-16 08:49:00,48.0,40.5,30.03,North,0,10.0,-999.0,75,-99.99,,,-99.99,meteohub,2013-04-16 12:49:00,
2013-04-16 08:54:00,47.7,40.1,30.03,NNW,338,6.0,-999.0,75,-99.99,,,-99.99,meteohub,2013-04-16 12:54:00,
2013-04-16 09:00:00,47.5,39.6,30.03,NNW,338,6.0,-999.0,74,-99.99,,,-99.99,meteohub,2013-04-16 13:00:00,
2013-04-16 09:16:00,46.8,38.7,30.03,NNW,338,8.0,-999.0,73,-99.99,,,-99.99,meteohub,2013-04-16 13:16:00,
2013-04-16 09:21:00,46.8,38.7,30.03,NNW,338,6.0,-999.0,73,-99.99,,,-99.99,meteohub,2013-04-16 13:21:00,
2013-04-16 09:27:00,46.8,39.0,30.03,NNW,338,7.0,-999.0,74,-99.99,,,-99.99,meteohub,2013-04-16 13:27:00,
2013-04-16 09:32:00,46.8,39.0,30.03,NNW,338,8.0,-999.0,74,-99.99,,,-99.99,meteohub,2013-04-16 13:32:00,
2013-04-16 09:37:00,46.8,39.0,30.03,NNW,338,6.0,-999.0,74,-99.99,,,-99.99,meteohub,2013-04-16 13:37:00,
2013-04-16 09:42:00,46.8,39.2,30.03,NNW,338,7.0,-999.0,75,-99.99,,,-99.99,meteohub,2013-04-16 13:42:00,
2013-04-16 09:47:00,46.8,39.0,30.03,NNE,22,8.0,-999.0,74,-99.99,,,-99.99,meteohub,2013-04-16 13:47:00,
2013-04-16 09:52:00,46.6,38.8,30.03,NNW,338,6.0,-999.0,74,-99.99,,,-99.99,meteohub,2013-04-16 13:52:00,
2013-04-16 09:58:00,46.8,39.2,30.03,WNW,292,6.0,-999.0,75,-99.99,,,-99.99,meteohub,2013-04-16 13:58:00,
2013-04-16 10:03:00,46.6,39.4,30.03,NNW,338,8.0,-999.0,76,-99.99,,,-99.99,meteohub,2013-04-16 14:03:00,
2013-04-16 10:08:00,46.4,38.8,30.03,NNW,338,7.0,-999.0,75,-99.99,,,-99.99,meteohub,2013-04-16 14:08:00,
2013-04-16 10:13:00,46.4,38.7,30.03,NW,315,6.0,-999.0,74,-99.99,,,-99.99,meteohub,2013-04-16 14:13:00,
2013-04-16 10:18:00,46.6,37.4,30.03,NW,315,6.0,-999.0,70,-99.99,,,-99.99,meteohub,2013-04-16 14:18:00,
2013-04-16 10:23:00,46.6,33.4,30.06,NW,315,6.0,-999.0,60,-99.99,,,-99.99,meteohub,2013-04-16 14:23:00,
2013-04-16 10:29:00,47.1,34.0,30.06,WNW,292,4.0,-999.0,60,-99.99,,,-99.99,meteohub,2013-04-16 14:29:00,
2013-04-16 10:34:00,47.1,31.8,30.06,NNW,338,6.0,-999.0,55,-99.99,,,-99.99,meteohub,2013-04-16 14:34:00,
2013-04-16 10:39:00,47.3,30.6,30.06,NW,315,6.0,-999.0,52,-99.99,,,-99.99,meteohub,2013-04-16 14:39:00,
2013-04-16 10:59:00,48.0,26.6,30.09,WNW,292,7.0,-999.0,43,-99.99,,,-99.99,meteohub,2013-04-16 14:59:00,
2013-04-16 11:04:00,48.0,26.1,30.09,NW,315,6.0,-999.0,42,-99.99,,,-99.99,meteohub,2013-04-16 15:04:00,
2013-04-16 11:09:00,48.2,25.0,30.09,NW,315,5.0,-999.0,40,-99.99,,,-99.99,meteohub,2013-04-16 15:09:00,
2013-04-16 11:14:00,48.2,25.7,30.09,NW,315,6.0,-999.0,41,-99.99,,,-99.99,meteohub,2013-04-16 15:14:00,
2013-04-16 11:19:00,48.6,26.6,30.09,NW,315,8.0,-999.0,42,-99.99,,,-99.99,meteohub,2013-04-16 15:19:00,
2013-04-16 11:24:00,48.6,25.3,30.09,WNW,292,9.0,-999.0,40,-99.99,,,-99.99,meteohub,2013-04-16 15:24:00,
2013-04-16 11:38:00,48.9,24.4,30.09,NNW,338,5.0,-999.0,38,-99.99,,,-99.99,meteohub,2013-04-16 15:38:00,
2013-04-16 11:43:00,49.1,24.1,30.09,NNW,338,10.0,-999.0,37,-99.99,,,-99.99,meteohub,2013-04-16 15:43:00,
2013-04-16 11:48:00,49.1,24.1,30.09,NNW,338,6.0,-999.0,37,-99.99,,,-99.99,meteohub,2013-04-16 15:48:00,
2013-04-16 11:58:00,49.8,25.3,30.09,NNW,338,6.0,-999.0,38,-99.99,,,-99.99,meteohub,2013-04-16 15:58:00,
2013-04-16 12:18:00,51.3,25.9,30.09,NNE,22,6.0,-999.0,37,-99.99,,,-99.99,meteohub,2013-04-16 16:18:00,
2013-04-16 12:23:00,51.1,23.0,30.09,NW,315,8.0,-999.0,33,-99.99,,,-99.99,meteohub,2013-04-16 16:23:00,
2013-04-16 12:28:00,51.1,22.3,30.09,NNW,338,10.0,-999.0,32,-99.99,,,-99.99,meteohub,2013-04-16 16:28:00,
2013-04-16 12:33:00,50.9,22.8,30.09,NW,315,9.0,-999.0,33,-99.99,,,-99.99,meteohub,2013-04-16 16:33:00,
2013-04-16 12:39:00,51.1,22.3,30.09,NNW,338,8.0,-999.0,32,-99.99,,,-99.99,meteohub,2013-04-16 16:39:00,
2013-04-16 12:44:00,51.4,21.9,30.09,North,0,6.0,-999.0,31,-99.99,,,-99.99,meteohub,2013-04-16 16:44:00,
2013-04-16 12:49:00,51.6,21.2,30.09,WNW,292,10.0,-999.0,30,-99.99,,,-99.99,meteohub,2013-04-16 16:49:00,
2013-04-16 12:54:00,51.8,21.4,30.09,NNW,338,7.0,-999.0,30,-99.99,,,-99.99,meteohub,2013-04-16 16:54:00,
2013-04-16 13:00:00,52.0,19.9,30.09,NNW,338,8.0,-999.0,28,-99.99,,,-99.99,meteohub,2013-04-16 17:00:00,
2013-04-16 13:05:00,52.2,19.2,30.09,West,270,10.0,-999.0,27,-99.99,,,-99.99,meteohub,2013-04-16 17:05:00,
2013-04-16 13:10:00,52.7,19.8,30.09,NNW,338,8.0,-999.0,27,-99.99,,,-99.99,meteohub,2013-04-16 17:10:00,
2013-04-16 13:15:00,52.5,18.7,30.09,NW,315,11.0,-999.0,26,-99.99,,,-99.99,meteohub,2013-04-16 17:15:00,
2013-04-16 13:20:00,52.9,19.0,30.09,WNW,292,9.0,-999.0,26,-99.99,,,-99.99,meteohub,2013-04-16 17:20:00,
2013-04-16 13:26:00,53.2,16.5,30.09,WNW,292,9.0,-999.0,23,-99.99,,,-99.99,meteohub,2013-04-16 17:26:00,
2013-04-16 13:32:00,53.2,16.5,30.09,NW,315,13.0,-999.0,23,-99.99,,,-99.99,meteohub,2013-04-16 17:32:00,
2013-04-16 13:37:00,53.6,13.6,30.09,East,90,6.0,-999.0,20,-99.99,,,-99.99,meteohub,2013-04-16 17:37:00,
2013-04-16 13:42:00,53.8,13.8,30.09,NNW,338,11.0,-999.0,20,-99.99,,,-99.99,meteohub,2013-04-16 17:42:00,
2013-04-16 13:47:00,53.8,13.8,30.09,WNW,292,13.0,-999.0,20,-99.99,,,-99.99,meteohub,2013-04-16 17:47:00,
2013-04-16 13:52:00,54.0,13.8,30.09,NNW,338,11.0,-999.0,20,-99.99,,,-99.99,meteohub,2013-04-16 17:52:00,
2013-04-16 13:57:00,54.0,13.8,30.09,NW,315,13.0,-999.0,20,-99.99,,,-99.99,meteohub,2013-04-16 17:57:00,
2013-04-16 14:02:00,54.1,14.0,30.09,NW,315,8.0,-999.0,20,-99.99,,,-99.99,meteohub,2013-04-16 18:02:00,
2013-04-16 14:07:00,54.3,14.2,30.09,NNW,338,8.0,-999.0,20,-99.99,,,-99.99,meteohub,2013-04-16 18:07:00,
2013-04-16 14:12:00,54.9,14.5,30.09,WNW,292,10.0,-999.0,20,-99.99,,,-99.99,meteohub,2013-04-16 18:12:00,
2013-04-16 14:17:00,55.0,14.7,30.09,NNW,338,8.0,-999.0,20,-99.99,,,-99.99,meteohub,2013-04-16 18:17:00,
2013-04-16 14:22:00,55.2,14.9,30.09,NNW,338,12.0,-999.0,20,-99.99,,,-99.99,meteohub,2013-04-16 18:22:00,
2013-04-16 14:27:00,55.4,15.1,30.09,NNE,22,13.0,-999.0,20,-99.99,,,-99.99,meteohub,2013-04-16 18:27:00,
2013-04-16 14:32:00,55.2,12.6,30.09,NNW,338,13.0,-999.0,18,-99.99,,,-99.99,meteohub,2013-04-16 18:32:00,
2013-04-16 14:37:00,55.4,11.5,30.09,NW,315,9.0,-999.0,17,-99.99,,,-99.99,meteohub,2013-04-16 18:37:00,
2013-04-16 14:42:00,55.4,11.5,30.09,NNW,338,15.0,-999.0,17,-99.99,,,-99.99,meteohub,2013-04-16 18:42:00,
2013-04-16 14:47:00,55.6,11.5,30.09,NW,315,13.0,-999.0,17,-99.99,,,-99.99,meteohub,2013-04-16 18:47:00,
2013-04-16 14:52:00,55.6,11.5,30.09,NNW,338,15.0,-999.0,17,-99.99,,,-99.99,meteohub,2013-04-16 18:52:00,
2013-04-16 14:57:00,55.9,11.8,30.09,NW,315,13.0,-999.0,17,-99.99,,,-99.99,meteohub,2013-04-16 18:57:00,
2013-04-16 15:02:00,56.1,12.0,30.09,NW,315,11.0,-999.0,17,-99.99,,,-99.99,meteohub,2013-04-16 19:02:00,
2013-04-16 15:07:00,56.3,12.2,30.12,NNW,338,9.0,-999.0,17,-99.99,,,-99.99,meteohub,2013-04-16 19:07:00,
2013-04-16 15:12:00,56.1,12.0,30.12,WNW,292,10.0,-999.0,17,-99.99,,,-99.99,meteohub,2013-04-16 19:12:00,
2013-04-16 15:17:00,56.1,12.0,30.12,North,0,8.0,-999.0,17,-99.99,,,-99.99,meteohub,2013-04-16 19:17:00,
2013-04-16 15:22:00,55.9,11.8,30.12,NW,315,15.0,-999.0,17,-99.99,,,-99.99,meteohub,2013-04-16 19:22:00,
2013-04-16 15:27:00,55.9,11.8,30.12,NW,315,9.0,-999.0,17,-99.99,,,-99.99,meteohub,2013-04-16 19:27:00,
2013-04-16 15:32:00,56.5,12.2,30.12,NNW,338,11.0,-999.0,17,-99.99,,,-99.99,meteohub,2013-04-16 19:32:00,
2013-04-16 15:37:00,56.7,12.4,30.15,NNW,338,13.0,-999.0,17,-99.99,,,-99.99,meteohub,2013-04-16 19:37:00,
2013-04-16 15:42:00,56.3,12.2,30.15,NW,315,10.0,-999.0,17,-99.99,,,-99.99,meteohub,2013-04-16 19:42:00,
2013-04-16 15:47:00,56.8,12.6,30.15,NNW,338,13.0,-999.0,17,-99.99,,,-99.99,meteohub,2013-04-16 19:47:00,
2013-04-16 15:53:00,56.7,12.4,30.15,NW,315,11.0,-999.0,17,-99.99,,,-99.99,meteohub,2013-04-16 19:53:00,
2013-04-16 15:58:00,56.7,12.4,30.15,NW,315,12.0,-999.0,17,-99.99,,,-99.99,meteohub,2013-04-16 19:58:00,
2013-04-16 16:03:00,56.8,12.6,30.15,NNE,22,4.0,-999.0,17,-99.99,,,-99.99,meteohub,2013-04-16 20:03:00,
2013-04-16 16:08:00,56.5,12.2,30.15,WNW,292,14.0,-999.0,17,-99.99,,,-99.99,meteohub,2013-04-16 20:08:00,
2013-04-16 16:13:00,56.5,12.2,30.15,NNW,338,11.0,-999.0,17,-99.99,,,-99.99,meteohub,2013-04-16 20:13:00,
2013-04-16 16:18:00,56.5,12.2,30.15,NNW,338,8.0,-999.0,17,-99.99,,,-99.99,meteohub,2013-04-16 20:18:00,
2013-04-16 16:23:00,56.1,12.0,30.12,NW,315,9.0,-999.0,17,-99.99,,,-99.99,meteohub,2013-04-16 20:23:00,
2013-04-16 16:29:00,56.1,12.0,30.12,WNW,292,6.0,-999.0,17,-99.99,,,-99.99,meteohub,2013-04-16 20:29:00,
2013-04-16 16:34:00,56.3,12.2,30.12,WNW,292,10.0,-999.0,17,-99.99,,,-99.99,meteohub,2013-04-16 20:34:00,
2013-04-16 16:39:00,56.3,12.2,30.15,NW,315,10.0,-999.0,17,-99.99,,,-99.99,meteohub,2013-04-16 20:39:00,
2013-04-16 16:44:00,56.5,12.2,30.15,WNW,292,13.0,-999.0,17,-99.99,,,-99.99,meteohub,2013-04-16 20:44:00,
2013-04-16 16:49:00,56.3,12.2,30.15,WNW,292,8.0,-999.0,17,-99.99,,,-99.99,meteohub,2013-04-16 20:49:00,
2013-04-16 16:55:00,56.5,12.2,30.15,NNW,338,7.0,-999.0,17,-99.99,,,-99.99,meteohub,2013-04-16 20:55:00,
2013-04-16 17:00:00,56.5,12.2,30.15,WSW,248,11.0,-999.0,17,-99.99,,,-99.99,meteohub,2013-04-16 21:00:00,
2013-04-16 17:05:00,56.5,12.2,30.15,WNW,292,11.0,-999.0,17,-99.99,,,-99.99,meteohub,2013-04-16 21:05:00,
2013-04-16 17:10:00,56.7,12.4,30.15,NNW,338,6.0,-999.0,17,-99.99,,,-99.99,meteohub,2013-04-16 21:10:00,
2013-04-16 17:15:00,56.7,12.4,30.15,WNW,292,10.0,-999.0,17,-99.99,,,-99.99,meteohub,2013-04-16 21:15:00,
2013-04-16 17:20:00,56.7,12.4,30.15,WNW,292,9.0,-999.0,17,-99.99,,,-99.99,meteohub,2013-04-16 21:20:00,
2013-04-16 17:26:00,56.7,12.4,30.15,WNW,292,11.0,-999.0,17,-99.99,,,-99.99,meteohub,2013-04-16 21:26:00,
2013-04-16 17:31:00,56.7,12.4,30.15,NW,315,9.0,-999.0,17,-99.99,,,-99.99,meteohub,2013-04-16 21:31:00,
2013-04-16 17:36:00,56.8,12.6,30.15,NNW,338,5.0,-999.0,17,-99.99,,,-99.99,meteohub,2013-04-16 21:36:00,
2013-04-16 17:41:00,56.7,12.4,30.15,WNW,292,6.0,-999.0,17,-99.99,,,-99.99,meteohub,2013-04-16 21:41:00,
2013-04-16 17:46:00,56.8,12.6,30.15,NNW,338,6.0,-999.0,17,-99.99,,,-99.99,meteohub,2013-04-16 21:46:00,
2013-04-16 17:52:00,57.0,12.7,30.15,NW,315,8.0,-999.0,17,-99.99,,,-99.99,meteohub,2013-04-16 21:52:00,
2013-04-16 17:57:00,57.0,12.7,30.15,NW,315,10.0,-999.0,17,-99.99,,,-99.99,meteohub,2013-04-16 21:57:00,
2013-04-16 18:02:00,57.0,12.7,30.15,NW,315,5.0,-999.0,17,-99.99,,,-99.99,meteohub,2013-04-16 22:02:00,
2013-04-16 18:07:00,56.8,12.6,30.12,NNW,338,9.0,-999.0,17,-99.99,,,-99.99,meteohub,2013-04-16 22:07:00,
2013-04-16 18:12:00,56.8,12.6,30.12,NW,315,6.0,-999.0,17,-99.99,,,-99.99,meteohub,2013-04-16 22:12:00,
2013-04-16 18:17:00,57.0,12.7,30.12,NNW,338,6.0,-999.0,17,-99.99,,,-99.99,meteohub,2013-04-16 22:17:00,
2013-04-16 18:22:00,57.2,12.9,30.15,WNW,292,8.0,-999.0,17,-99.99,,,-99.99,meteohub,2013-04-16 22:22:00,
2013-04-16 18:27:00,56.8,12.6,30.15,WNW,292,7.0,-999.0,17,-99.99,,,-99.99,meteohub,2013-04-16 22:27:00,
2013-04-16 18:32:00,56.8,12.6,30.15,NW,315,6.0,-999.0,17,-99.99,,,-99.99,meteohub,2013-04-16 22:32:00,
2013-04-16 18:37:00,56.8,12.6,30.18,NNW,338,10.0,-999.0,17,-99.99,,,-99.99,meteohub,2013-04-16 22:37:00,
2013-04-16 18:42:00,56.8,12.6,30.18,NW,315,8.0,-999.0,17,-99.99,,,-99.99,meteohub,2013-04-16 22:42:00,
2013-04-16 18:47:00,56.8,12.6,30.18,WNW,292,5.0,-999.0,17,-99.99,,,-99.99,meteohub,2013-04-16 22:47:00,
2013-04-16 18:52:00,56.8,12.6,30.18,NNW,338,5.0,-999.0,17,-99.99,,,-99.99,meteohub,2013-04-16 22:52:00,
2013-04-16 18:57:00,56.8,12.6,30.18,NW,315,8.0,-999.0,17,-99.99,,,-99.99,meteohub,2013-04-16 22:57:00,
2013-04-16 19:03:00,57.0,12.7,30.18,WNW,292,4.0,-999.0,17,-99.99,,,-99.99,meteohub,2013-04-16 23:03:00,
2013-04-16 19:08:00,56.8,12.6,30.18,NNW,338,6.0,-999.0,17,-99.99,,,-99.99,meteohub,2013-04-16 23:08:00,
2013-04-16 19:13:00,57.0,12.7,30.18,NNW,338,8.0,-999.0,17,-99.99,,,-99.99,meteohub,2013-04-16 23:13:00,
2013-04-16 19:18:00,57.2,12.9,30.18,NNW,338,5.0,-999.0,17,-99.99,,,-99.99,meteohub,2013-04-16 23:18:00,
2013-04-16 19:23:00,57.2,12.9,30.15,NNW,338,7.0,-999.0,17,-99.99,,,-99.99,meteohub,2013-04-16 23:23:00,
2013-04-16 19:29:00,57.2,12.9,30.15,NNW,338,6.0,-999.0,17,-99.99,,,-99.99,meteohub,2013-04-16 23:29:00,
2013-04-16 19:34:00,57.0,12.7,30.15,NW,315,9.0,-999.0,17,-99.99,,,-99.99,meteohub,2013-04-16 23:34:00,
2013-04-16 19:39:00,56.8,12.6,30.15,NW,315,8.0,-999.0,17,-99.99,,,-99.99,meteohub,2013-04-16 23:39:00,
2013-04-16 19:44:00,56.7,12.4,30.15,NNW,338,8.0,-999.0,17,-99.99,,,-99.99,meteohub,2013-04-16 23:44:00,
2013-04-16 19:49:00,56.7,12.4,30.15,NNW,338,6.0,-999.0,17,-99.99,,,-99.99,meteohub,2013-04-16 23:49:00,
2013-04-16 19:55:00,56.7,12.4,30.18,NNW,338,5.0,-999.0,17,-99.99,,,-99.99,meteohub,2013-04-16 23:55:00,
2013-04-16 20:00:00,56.5,12.2,30.18,NNE,22,5.0,-999.0,17,-99.99,,,-99.99,meteohub,2013-04-17 00:00:00,
2013-04-16 20:05:00,56.1,12.0,30.21,NNE,22,4.0,-999.0,17,-99.99,,,-99.99,meteohub,2013-04-17 00:05:00,
2013-04-16 20:11:00,55.9,11.8,30.21,NNW,338,6.0,-999.0,17,-99.99,,,-99.99,meteohub,2013-04-17 00:11:00,
2013-04-16 20:16:00,55.8,11.7,30.21,NNE,22,3.0,-999.0,17,-99.99,,,-99.99,meteohub,2013-04-17 00:16:00,
2013-04-16 20:21:00,55.6,11.5,30.21,North,0,4.0,-999.0,17,-99.99,,,-99.99,meteohub,2013-04-17 00:21:00,
2013-04-16 20:26:00,55.2,12.6,30.21,North,0,3.0,-999.0,18,-99.99,,,-99.99,meteohub,2013-04-17 00:26:00,
2013-04-16 20:31:00,55.0,12.4,30.21,NNE,22,5.0,-999.0,18,-99.99,,,-99.99,meteohub,2013-04-17 00:31:00,
2013-04-16 20:37:00,54.9,12.2,30.21,NNE,22,1.0,-999.0,18,-99.99,,,-99.99,meteohub,2013-04-17 00:37:00,
2013-04-16 20:42:00,54.7,12.0,30.21,NNW,338,3.0,-999.0,18,-99.99,,,-99.99,meteohub,2013-04-17 00:42:00,
2013-04-16 20:47:00,54.5,12.0,30.21,North,0,3.0,-999.0,18,-99.99,,,-99.99,meteohub,2013-04-17 00:47:00,
2013-04-16 20:52:00,54.5,12.0,30.21,North,0,3.0,-999.0,18,-99.99,,,-99.99,meteohub,2013-04-17 00:52:00,
2013-04-16 20:57:00,54.3,11.8,30.21,NNE,22,2.0,-999.0,18,-99.99,,,-99.99,meteohub,2013-04-17 00:57:00,
2013-04-16 21:02:00,54.1,11.7,30.21,NNE,22,0.0,-999.0,18,-99.99,,,-99.99,meteohub,2013-04-17 01:02:00,
2013-04-16 21:07:00,53.8,11.3,30.21,NE,45,0.0,-999.0,18,-99.99,,,-99.99,meteohub,2013-04-17 01:07:00,
2013-04-16 21:12:00,53.6,11.3,30.21,NNE,22,0.0,-999.0,18,-99.99,,,-99.99,meteohub,2013-04-17 01:12:00,
2013-04-16 21:17:00,53.2,10.9,30.21,NNW,338,0.0,-999.0,18,-99.99,,,-99.99,meteohub,2013-04-17 01:17:00,
2013-04-16 21:22:00,53.1,10.8,30.21,North,0,0.0,-999.0,18,-99.99,,,-99.99,meteohub,2013-04-17 01:22:00,
2013-04-16 21:27:00,52.5,10.4,30.21,East,90,0.0,-999.0,18,-99.99,,,-99.99,meteohub,2013-04-17 01:27:00,
2013-04-16 21:33:00,52.2,10.0,30.21,ESE,112,0.0,-999.0,18,-99.99,,,-99.99,meteohub,2013-04-17 01:33:00,
2013-04-16 21:38:00,51.8,9.7,30.18,NNE,22,0.0,-999.0,18,-99.99,,,-99.99,meteohub,2013-04-17 01:38:00,
2013-04-16 21:43:00,51.6,10.8,30.18,NNE,22,0.0,-999.0,19,-99.99,,,-99.99,meteohub,2013-04-17 01:43:00,
2013-04-16 21:48:00,51.4,10.6,30.18,NE,45,0.0,-999.0,19,-99.99,,,-99.99,meteohub,2013-04-17 01:48:00,
2013-04-16 21:53:00,51.3,10.6,30.21,NNE,22,0.0,-999.0,19,-99.99,,,-99.99,meteohub,2013-04-17 01:53:00,
2013-04-16 21:58:00,51.1,10.4,30.21,East,90,0.0,-999.0,19,-99.99,,,-99.99,meteohub,2013-04-17 01:58:00,
2013-04-16 22:04:00,51.3,10.6,30.21,NE,45,0.0,-999.0,19,-99.99,,,-99.99,meteohub,2013-04-17 02:04:00,
2013-04-16 22:09:00,51.1,10.4,30.21,NNW,338,0.0,-999.0,19,-99.99,,,-99.99,meteohub,2013-04-17 02:09:00,
2013-04-16 22:14:00,50.9,10.2,30.21,NNW,338,0.0,-999.0,19,-99.99,,,-99.99,meteohub,2013-04-17 02:14:00,
2013-04-16 22:19:00,50.5,9.9,30.21,ENE,68,0.0,-999.0,19,-99.99,,,-99.99,meteohub,2013-04-17 02:19:00,
2013-04-16 22:25:00,50.2,9.7,30.24,East,90,0.0,-999.0,19,-99.99,,,-99.99,meteohub,2013-04-17 02:25:00,
2013-04-16 22:30:00,50.0,9.5,30.24,NE,45,1.0,-999.0,19,-99.99,,,-99.99,meteohub,2013-04-17 02:30:00,
2013-04-16 22:35:00,50.2,9.7,30.24,NE,45,0.0,-999.0,19,-99.99,,,-99.99,meteohub,2013-04-17 02:35:00,
2013-04-16 22:40:00,50.0,11.7,30.21,ENE,68,0.0,-999.0,21,-99.99,,,-99.99,meteohub,2013-04-17 02:40:00,
2013-04-16 22:45:00,49.8,11.5,30.21,ENE,68,0.0,-999.0,21,-99.99,,,-99.99,meteohub,2013-04-17 02:45:00,
2013-04-16 22:50:00,49.8,11.5,30.24,ENE,68,0.0,-999.0,21,-99.99,,,-99.99,meteohub,2013-04-17 02:50:00,
2013-04-16 22:56:00,50.0,11.7,30.24,ENE,68,1.0,-999.0,21,-99.99,,,-99.99,meteohub,2013-04-17 02:56:00,
2013-04-16 23:01:00,50.0,11.7,30.24,NNE,22,0.0,-999.0,21,-99.99,,,-99.99,meteohub,2013-04-17 03:01:00,
2013-04-16 23:06:00,50.0,11.7,30.24,NNE,22,0.0,-999.0,21,-99.99,,,-99.99,meteohub,2013-04-17 03:06:00,
2013-04-16 23:11:00,50.0,11.7,30.24,North,0,0.0,-999.0,21,-99.99,,,-99.99,meteohub,2013-04-17 03:11:00,
2013-04-16 23:16:00,50.0,11.7,30.24,North,0,0.0,-999.0,21,-99.99,,,-99.99,meteohub,2013-04-17 03:16:00,
2013-04-16 23:22:00,49.8,11.5,30.27,ENE,68,0.0,-999.0,21,-99.99,,,-99.99,meteohub,2013-04-17 03:22:00,
2013-04-16 23:27:00,49.6,11.3,30.27,ESE,112,0.0,-999.0,21,-99.99,,,-99.99,meteohub,2013-04-17 03:27:00,
2013-04-16 23:32:00,49.3,11.1,30.27,East,90,0.0,-999.0,21,-99.99,,,-99.99,meteohub,2013-04-17 03:32:00,
2013-04-16 23:37:00,48.9,10.8,30.24,ENE,68,0.0,-999.0,21,-99.99,,,-99.99,meteohub,2013-04-17 03:37:00,
2013-04-16 23:42:00,48.7,10.6,30.24,NE,45,0.0,-999.0,21,-99.99,,,-99.99,meteohub,2013-04-17 03:42:00,
2013-04-16 23:47:00,48.6,10.4,30.24,NNE,22,0.0,-999.0,21,-99.99,,,-99.99,meteohub,2013-04-17 03:47:00,
2013-04-16 23:52:00,48.6,10.4,30.24,NE,45,0.0,-999.0,21,-99.99,,,-99.99,meteohub,2013-04-17 03:52:00,
2013-04-16 23:57:00,48.7,10.6,30.24,ENE,68,2.0,-999.0,21,-99.99,,,-99.99,meteohub,2013-04-17 03:57:00,